Time,TemperatureF,DewpointF,PressureIn,WindDirection,WindDirectionDegrees,WindSpeedMPH,WindSpeedGustMPH,Humidity,HourlyPrecipIn,Conditions,Clouds,dailyrainin,SoftwareType,DateUTC
2013-01-16 00:13:00,22.3,19.0,30.19,West,276,1.0,2.0,85,0.00,,,0.00,weatherlink.com 1.10,2013-01-16 06:13:00,
2013-01-16 00:28:00,22.0,19.0,30.19,West,264,1.0,1.0,86,0.00,,,0.00,weatherlink.com 1.10,2013-01-16 06:28:00,
2013-01-16 00:43:00,21.9,19.0,30.19,WNW,288,2.0,3.0,87,0.00,,,0.00,weatherlink.com 1.10,2013-01-16 06:43:00,
2013-01-16 00:58:00,22.0,19.0,30.19,WNW,290,2.0,3.0,86,0.00,,,0.00,weatherlink.com 1.10,2013-01-16 06:58:00,
2013-01-16 01:13:00,21.5,18.0,30.18,WNW,285,2.0,2.0,87,0.00,,,0.00,weatherlink.com 1.10,2013-01-16 07:13:00,
2013-01-16 01:28:00,21.4,18.0,30.18,WNW,293,1.0,4.0,87,0.00,,,0.00,weatherlink.com 1.10,2013-01-16 07:28:00,
2013-01-16 01:43:00,21.3,18.0,30.18,West,281,1.0,4.0,86,0.00,,,0.00,weatherlink.com 1.10,2013-01-16 07:43:00,
2013-01-16 01:58:00,21.2,18.0,30.18,WNW,288,1.0,5.0,86,0.00,,,0.00,weatherlink.com 1.10,2013-01-16 07:58:00,
2013-01-16 02:13:00,21.1,18.0,30.20,West,280,3.0,4.0,86,0.00,,,0.00,weatherlink.com 1.10,2013-01-16 08:13:00,
2013-01-16 02:29:00,20.6,17.0,30.20,West,278,2.0,3.0,86,0.00,,,0.00,weatherlink.com 1.10,2013-01-16 08:29:00,
2013-01-16 02:44:00,20.4,17.0,30.19,West,276,1.0,3.0,87,0.00,,,0.00,weatherlink.com 1.10,2013-01-16 08:44:00,
2013-01-16 02:59:00,20.2,17.0,30.18,West,280,1.0,3.0,88,0.00,,,0.00,weatherlink.com 1.10,2013-01-16 08:59:00,
2013-01-16 03:14:00,20.1,17.0,30.18,WNW,283,1.0,3.0,88,0.00,,,0.00,weatherlink.com 1.10,2013-01-16 09:14:00,
2013-01-16 03:29:00,19.7,17.0,30.18,West,281,1.0,1.0,88,0.00,,,0.00,weatherlink.com 1.10,2013-01-16 09:29:00,
2013-01-16 03:44:00,20.0,17.0,30.17,West,269,1.0,4.0,88,0.00,,,0.00,weatherlink.com 1.10,2013-01-16 09:44:00,
2013-01-16 03:59:00,20.2,17.0,30.16,WNW,286,2.0,4.0,87,0.00,,,0.00,weatherlink.com 1.10,2013-01-16 09:59:00,
2013-01-16 04:14:00,19.5,17.0,30.16,West,273,1.0,2.0,88,0.00,,,0.00,weatherlink.com 1.10,2013-01-16 10:14:00,
2013-01-16 04:29:00,19.0,17.0,30.15,WSW,256,1.0,2.0,90,0.00,,,0.00,weatherlink.com 1.10,2013-01-16 10:29:00,
2013-01-16 04:44:00,18.8,16.0,30.15,West,263,0.0,1.0,90,0.00,,,0.00,weatherlink.com 1.10,2013-01-16 10:44:00,
2013-01-16 04:59:00,18.6,16.0,30.14,WSW,249,1.0,1.0,91,0.00,,,0.00,weatherlink.com 1.10,2013-01-16 10:59:00,
2013-01-16 05:14:00,18.7,17.0,30.14,West,259,2.0,3.0,91,0.00,,,0.00,weatherlink.com 1.10,2013-01-16 11:14:00,
2013-01-16 05:29:00,19.0,16.0,30.12,WSW,246,1.0,4.0,88,0.00,,,0.00,weatherlink.com 1.10,2013-01-16 11:29:00,
2013-01-16 05:44:00,18.8,16.0,30.12,WSW,256,1.0,2.0,87,0.00,,,0.00,weatherlink.com 1.10,2013-01-16 11:44:00,
2013-01-16 05:59:00,18.5,16.0,30.13,WSW,239,1.0,2.0,88,0.00,,,0.00,weatherlink.com 1.10,2013-01-16 11:59:00,
2013-01-16 06:14:00,18.1,16.0,30.13,WSW,238,2.0,3.0,90,0.00,,,0.00,weatherlink.com 1.10,2013-01-16 12:14:00,
2013-01-16 06:29:00,17.5,15.0,30.14,WSW,245,2.0,3.0,90,0.00,,,0.00,weatherlink.com 1.10,2013-01-16 12:29:00,
2013-01-16 06:44:00,17.0,15.0,30.14,WSW,239,4.0,6.0,90,0.00,,,0.00,weatherlink.com 1.10,2013-01-16 12:44:00,
2013-01-16 06:59:00,16.9,15.0,30.16,WSW,245,2.0,5.0,90,0.00,,,0.00,weatherlink.com 1.10,2013-01-16 12:59:00,
2013-01-16 07:14:00,16.7,14.0,30.16,West,261,3.0,6.0,90,0.00,,,0.00,weatherlink.com 1.10,2013-01-16 13:14:00,
2013-01-16 07:29:00,16.7,14.0,30.16,West,263,1.0,4.0,90,0.00,,,0.00,weatherlink.com 1.10,2013-01-16 13:29:00,
2013-01-16 07:44:00,17.3,15.0,30.16,WSW,248,2.0,3.0,89,0.00,,,0.00,weatherlink.com 1.10,2013-01-16 13:44:00,
2013-01-16 07:59:00,18.2,15.0,30.16,West,274,1.0,5.0,87,0.00,,,0.00,weatherlink.com 1.10,2013-01-16 13:59:00,
2013-01-16 08:14:00,18.2,15.0,30.15,WSW,257,2.0,4.0,86,0.00,,,0.00,weatherlink.com 1.10,2013-01-16 14:14:00,
2013-01-16 08:29:00,18.5,15.0,30.15,SW,231,4.0,5.0,87,0.00,,,0.00,weatherlink.com 1.10,2013-01-16 14:29:00,
2013-01-16 08:44:00,19.2,16.0,30.14,West,264,1.0,6.0,86,0.00,,,0.00,weatherlink.com 1.10,2013-01-16 14:44:00,
2013-01-16 08:59:00,20.4,17.0,30.15,SW,228,5.0,7.0,85,0.00,,,0.00,weatherlink.com 1.10,2013-01-16 14:59:00,
2013-01-16 09:14:00,21.7,17.0,30.15,SW,228,6.0,8.0,81,0.00,,,0.00,weatherlink.com 1.10,2013-01-16 15:14:00,
2013-01-16 09:29:00,22.8,17.0,30.15,SW,235,5.0,9.0,79,0.00,,,0.00,weatherlink.com 1.10,2013-01-16 15:29:00,
2013-01-16 09:45:00,23.8,17.0,30.15,WSW,252,4.0,8.0,76,0.00,,,0.00,weatherlink.com 1.10,2013-01-16 15:45:00,
2013-01-16 10:00:00,25.0,18.0,30.14,SW,231,4.0,8.0,74,0.00,,,0.00,weatherlink.com 1.10,2013-01-16 16:00:00,
2013-01-16 10:15:00,26.4,19.0,30.14,SW,224,5.0,10.0,73,0.00,,,0.00,weatherlink.com 1.10,2013-01-16 16:15:00,
2013-01-16 10:30:00,26.6,18.0,30.13,SW,231,6.0,11.0,70,0.00,,,0.00,weatherlink.com 1.10,2013-01-16 16:30:00,
2013-01-16 10:45:00,27.2,19.0,30.13,WSW,239,4.0,9.0,71,0.00,,,0.00,weatherlink.com 1.10,2013-01-16 16:45:00,
2013-01-16 11:00:00,28.2,19.0,30.13,SW,221,6.0,10.0,68,0.00,,,0.00,weatherlink.com 1.10,2013-01-16 17:00:00,
2013-01-16 11:15:00,29.1,20.0,30.12,SW,234,7.0,8.0,70,0.00,,,0.00,weatherlink.com 1.10,2013-01-16 17:15:00,
2013-01-16 11:30:00,29.9,20.0,30.11,SW,235,5.0,10.0,67,0.00,,,0.00,weatherlink.com 1.10,2013-01-16 17:30:00,
2013-01-16 11:45:00,30.9,21.0,30.10,WSW,243,4.0,9.0,67,0.00,,,0.00,weatherlink.com 1.10,2013-01-16 17:45:00,
2013-01-16 12:00:00,32.3,22.0,30.09,West,259,4.0,11.0,66,0.00,,,0.00,weatherlink.com 1.10,2013-01-16 18:00:00,
2013-01-16 12:15:00,33.9,21.0,30.09,WSW,257,7.0,13.0,60,0.00,,,0.00,weatherlink.com 1.10,2013-01-16 18:15:00,
2013-01-16 12:30:00,35.1,21.0,30.08,WSW,239,4.0,10.0,58,0.00,,,0.00,weatherlink.com 1.10,2013-01-16 18:30:00,
2013-01-16 12:45:00,35.2,21.0,30.07,WSW,240,7.0,13.0,56,0.00,,,0.00,weatherlink.com 1.10,2013-01-16 18:45:00,
2013-01-16 13:00:00,35.8,21.0,30.07,WSW,238,7.0,14.0,56,0.00,,,0.00,weatherlink.com 1.10,2013-01-16 19:00:00,
2013-01-16 13:15:00,36.0,22.0,30.07,West,259,4.0,16.0,56,0.00,,,0.00,weatherlink.com 1.10,2013-01-16 19:15:00,
2013-01-16 13:30:00,36.4,22.0,30.05,South,181,10.0,12.0,56,0.00,,,0.00,weatherlink.com 1.10,2013-01-16 19:30:00,
2013-01-16 13:45:00,36.5,22.0,30.05,WSW,240,8.0,13.0,56,0.00,,,0.00,weatherlink.com 1.10,2013-01-16 19:45:00,
2013-01-16 14:00:00,36.8,22.0,30.05,WSW,240,12.0,13.0,56,0.00,,,0.00,weatherlink.com 1.10,2013-01-16 20:00:00,
2013-01-16 14:15:00,37.3,22.0,30.06,West,268,5.0,14.0,54,0.00,,,0.00,weatherlink.com 1.10,2013-01-16 20:15:00,
2013-01-16 14:30:00,37.4,22.0,30.05,WSW,252,7.0,16.0,53,0.00,,,0.00,weatherlink.com 1.10,2013-01-16 20:30:00,
2013-01-16 14:45:00,37.9,22.0,30.05,West,264,13.0,15.0,54,0.00,,,0.00,weatherlink.com 1.10,2013-01-16 20:45:00,
2013-01-16 15:01:00,38.3,22.0,30.04,SW,236,3.0,14.0,53,0.00,,,0.00,weatherlink.com 1.10,2013-01-16 21:01:00,
2013-01-16 15:16:00,38.8,22.0,30.05,West,266,5.0,16.0,52,0.00,,,0.00,weatherlink.com 1.10,2013-01-16 21:16:00,
2013-01-16 15:31:00,38.9,22.0,30.05,SW,231,7.0,11.0,51,0.00,,,0.00,weatherlink.com 1.10,2013-01-16 21:31:00,
2013-01-16 15:46:00,39.3,23.0,30.05,WSW,240,3.0,10.0,52,0.00,,,0.00,weatherlink.com 1.10,2013-01-16 21:46:00,
2013-01-16 16:01:00,39.2,22.0,30.06,WSW,244,4.0,10.0,51,0.00,,,0.00,weatherlink.com 1.10,2013-01-16 22:01:00,
2013-01-16 16:16:00,39.1,22.0,30.05,West,266,3.0,11.0,51,0.00,,,0.00,weatherlink.com 1.10,2013-01-16 22:16:00,
2013-01-16 16:31:00,38.9,22.0,30.06,SW,228,2.0,10.0,52,0.00,,,0.00,weatherlink.com 1.10,2013-01-16 22:31:00,
2013-01-16 16:46:00,38.4,22.0,30.07,SW,226,5.0,7.0,53,0.00,,,0.00,weatherlink.com 1.10,2013-01-16 22:46:00,
2013-01-16 17:01:00,37.4,22.0,30.08,SW,229,4.0,7.0,55,0.00,,,0.00,weatherlink.com 1.10,2013-01-16 23:01:00,
2013-01-16 17:16:00,36.9,22.0,30.08,SW,231,8.0,8.0,56,0.00,,,0.00,weatherlink.com 1.10,2013-01-16 23:16:00,
2013-01-16 17:31:00,36.3,23.0,30.09,SW,221,3.0,8.0,58,0.00,,,0.00,weatherlink.com 1.10,2013-01-16 23:31:00,
2013-01-16 17:46:00,36.0,23.0,30.10,SW,235,6.0,8.0,59,0.00,,,0.00,weatherlink.com 1.10,2013-01-16 23:46:00,
2013-01-16 18:01:00,35.5,23.0,30.09,WSW,242,5.0,7.0,60,0.00,,,0.00,weatherlink.com 1.10,2013-01-17 00:01:00,
2013-01-16 18:16:00,35.7,23.0,30.10,WSW,240,2.0,7.0,60,0.00,,,0.00,weatherlink.com 1.10,2013-01-17 00:16:00,
2013-01-16 18:31:00,35.7,23.0,30.11,SW,236,3.0,6.0,60,0.01,,,0.01,weatherlink.com 1.10,2013-01-17 00:31:00,
2013-01-16 18:46:00,35.3,23.0,30.11,SW,221,3.0,7.0,61,0.01,,,0.01,weatherlink.com 1.10,2013-01-17 00:46:00,
2013-01-16 19:01:00,34.9,23.0,30.11,WSW,257,2.0,5.0,62,0.01,,,0.01,weatherlink.com 1.10,2013-01-17 01:01:00,
2013-01-16 19:16:00,34.6,23.0,30.12,WSW,255,2.0,7.0,63,0.00,,,0.01,weatherlink.com 1.10,2013-01-17 01:16:00,
2013-01-16 19:31:00,34.4,23.0,30.12,West,259,3.0,9.0,64,0.00,,,0.01,weatherlink.com 1.10,2013-01-17 01:31:00,
2013-01-16 19:46:00,33.8,23.0,30.12,WSW,258,6.0,8.0,65,0.00,,,0.01,weatherlink.com 1.10,2013-01-17 01:46:00,
2013-01-16 20:01:00,34.0,23.0,30.13,West,259,4.0,8.0,65,0.00,,,0.01,weatherlink.com 1.10,2013-01-17 02:01:00,
2013-01-16 20:16:00,33.2,23.0,30.13,WSW,249,7.0,8.0,66,0.00,,,0.01,weatherlink.com 1.10,2013-01-17 02:16:00,
2013-01-16 20:31:00,33.4,23.0,30.13,WSW,255,4.0,10.0,66,0.00,,,0.01,weatherlink.com 1.10,2013-01-17 02:31:00,
2013-01-16 20:46:00,33.1,23.0,30.12,WSW,253,3.0,7.0,67,0.00,,,0.01,weatherlink.com 1.10,2013-01-17 02:46:00,
2013-01-16 21:01:00,32.6,23.0,30.11,WSW,256,9.0,9.0,68,0.00,,,0.01,weatherlink.com 1.10,2013-01-17 03:01:00,
2013-01-16 21:16:00,32.8,23.0,30.12,West,259,5.0,7.0,68,0.00,,,0.01,weatherlink.com 1.10,2013-01-17 03:16:00,
2013-01-16 21:31:00,32.8,23.0,30.12,WSW,250,3.0,7.0,68,0.00,,,0.01,weatherlink.com 1.10,2013-01-17 03:31:00,
2013-01-16 21:46:00,32.4,23.0,30.12,WSW,250,3.0,7.0,69,0.00,,,0.01,weatherlink.com 1.10,2013-01-17 03:46:00,
2013-01-16 22:01:00,32.0,23.0,30.13,WSW,247,2.0,7.0,70,0.00,,,0.01,weatherlink.com 1.10,2013-01-17 04:01:00,
2013-01-16 22:16:00,31.8,23.0,30.13,WSW,250,3.0,6.0,70,0.00,,,0.01,weatherlink.com 1.10,2013-01-17 04:16:00,
2013-01-16 22:31:00,31.9,23.0,30.13,West,269,3.0,6.0,70,0.00,,,0.01,weatherlink.com 1.10,2013-01-17 04:31:00,
2013-01-16 22:46:00,32.6,23.0,30.13,WSW,257,3.0,5.0,69,0.00,,,0.01,weatherlink.com 1.10,2013-01-17 04:46:00,
2013-01-16 23:01:00,32.3,23.0,30.13,WSW,252,8.0,8.0,69,0.00,,,0.01,weatherlink.com 1.10,2013-01-17 05:01:00,
2013-01-16 23:16:00,32.0,23.0,30.13,WSW,255,4.0,7.0,69,0.00,,,0.01,weatherlink.com 1.10,2013-01-17 05:16:00,
2013-01-16 23:31:00,31.3,23.0,30.13,WSW,248,4.0,8.0,71,0.00,,,0.01,weatherlink.com 1.10,2013-01-17 05:31:00,
2013-01-16 23:46:00,30.9,23.0,30.14,West,273,4.0,7.0,72,0.00,,,0.01,weatherlink.com 1.10,2013-01-17 05:46:00,